sat.trackr.live / text

‹ back to catalog

STARLINK-36872

NORAD 67955 · 2026-037Z

PAYLOAD ACTIVE UNKNOWN

§ Identity

Operator
Country
US
Launch date
2026-02-24
Launch site
AFETR
Launch vehicle
Mass (kg)
RCS (m²)

Purposes: comms

External: N2YO · Heavens-Above · Gunter

§ Orbital elements

Epoch: 2026-05-25T05:03:53.424000Z

Period
94.27 min
Inclination
42.9984°
Eccentricity
0.0000800
Mean motion
15.27599463 rev/d
Perigee alt
482.4 km
Apogee alt
483.5 km
Semi-major
6,861.1 km
B*
9.7054e-4
RAAN
118.5620°
Arg perigee
259.7864°
Mean anomaly
100.2897°
Rev number
1,504

§ Raw data

STARLINK-368721 67955U 26037Z   26145.21103500  .00026557  00000+0  97054-3 0  99922 67955  42.9984 118.5620 0000800 259.7864 100.2897 15.27599463 15040

JSON: /api/v1/satellites/67955 · /tle

For live sub-satellite position, see the globe view (requires WebGL).

§ Visibility from observer

Set your observer location to see the next 7 days of passes ≥ 10°. The values pass through the URL so the page stays shareable.

No JS? Fill the form by hand. The geolocation button needs JavaScript.